| time (UTC) | temp F | wind direction | speed knots | gust knots | rain 1hr in | rain 24hr in | rain mn in | humidity % | barometer mb |
| 20260504050535 | 60 | 219 | 5.2 | 8.7 | 0.00 | 0.00 | 0.00 | 70 | 1014.9 |
| 20260504045534 | 60 | 222 | 5.2 | 9.6 | 0.00 | 0.00 | 0.00 | 70 | 1015.0 |
| 20260504045033 | 60 | 223 | 5.2 | 8.7 | 0.00 | 0.00 | 0.00 | 69 | 1014.9 |
| 20260504044533 | 60 | 225 | 6.1 | 8.7 | 0.00 | 0.00 | 0.00 | 69 | 1014.9 |
| 20260504044033 | 60 | 218 | 5.2 | 8.7 | 0.00 | 0.00 | 0.00 | 69 | 1015.1 |
| 20260504043535 | 60 | 221 | 4.3 | 7.8 | 0.00 | 0.00 | 0.00 | 68 | 1014.9 |
| 20260504043034 | 60 | 223 | 5.2 | 10.4 | 0.00 | 0.00 | 0.00 | 68 | 1014.9 |
| 20260504042535 | 60 | 223 | 5.2 | 10.4 | 0.00 | 0.00 | 0.00 | 68 | 1014.8 |
| 20260504042034 | 60 | 227 | 5.2 | 8.7 | 0.00 | 0.00 | 0.00 | 67 | 1014.9 |
| 20260504041531 | 60 | 215 | 5.2 | 8.7 | 0.00 | 0.00 | 0.00 | 67 | 1014.6 |
| 20260504041032 | 60 | 228 | 4.3 | 10.4 | 0.00 | 0.00 | 0.00 | 66 | 1014.7 |
| 20260504040529 | 60 | 211 | 5.2 | 10.4 | 0.00 | 0.00 | 0.00 | 66 | 1014.7 |
| 20260504040031 | 60 | 220 | 5.2 | 9.6 | 0.00 | 0.00 | 0.00 | 66 | 1014.8 |
| 20260504035527 | 60 | 210 | 6.1 | 10.4 | 0.00 | 0.00 | 0.00 | 66 | 1014.7 |
| 20260504035029 | 60 | 212 | 6.1 | 10.4 | 0.00 | 0.00 | 0.00 | 66 | 1014.6 |
| 20260504034527 | 60 | 219 | 5.2 | 9.6 | 0.00 | 0.00 | 0.00 | 66 | 1014.6 |
| 20260504034028 | 61 | 219 | 5.2 | 10.4 | 0.00 | 0.00 | 0.00 | 66 | 1014.5 |
| 20260504033529 | 61 | 224 | 5.2 | 12.2 | 0.00 | 0.00 | 0.00 | 66 | 1014.4 |
| 20260504033029 | 61 | 225 | 6.1 | 13.0 | 0.00 | 0.00 | 0.00 | 66 | 1014.4 |
| 20260504032529 | 61 | 225 | 6.1 | 13.0 | 0.00 | 0.00 | 0.00 | 66 | 1014.3 |
| 20260504032258 | 61 | 225 | 6.1 | 11.3 | 0.00 | 0.00 | 0.00 | 66 | 1014.2 |
| 20260504031755 | 61 | 215 | 7.0 | 11.3 | 0.00 | 0.00 | 0.00 | 66 | 1014.1 |
| 20260504031023 | 61 | 212 | 7.0 | 10.4 | 0.00 | 0.00 | 0.00 | 66 | 1014.1 |
| 20260504030523 | 61 | 224 | 7.0 | 11.3 | 0.00 | 0.00 | 0.00 | 66 | 1014.1 |
| 20260504030020 | 61 | 227 | 7.0 | 13.0 | 0.00 | 0.00 | 0.00 | 66 | 1013.9 |
| 20260504025520 | 62 | 210 | 7.0 | 13.0 | 0.00 | 0.00 | 0.00 | 65 | 1013.8 |
| 20260504024520 | 62 | 205 | 7.8 | 14.8 | 0.00 | 0.00 | 0.00 | 65 | 1013.8 |
| 20260504024020 | 62 | 218 | 7.0 | 14.8 | 0.00 | 0.00 | 0.00 | 64 | 1013.8 |
| 20260504023514 | 62 | 211 | 6.1 | 11.3 | 0.00 | 0.00 | 0.00 | 63 | 1013.6 |
| 20260504023245 | 62 | 232 | 7.0 | 12.2 | 0.00 | 0.00 | 0.00 | 63 | 1013.5 |
| 20260504022745 | 62 | 220 | 7.8 | 12.2 | 0.00 | 0.00 | 0.00 | 62 | 1013.5 |
| 20260504022011 | 63 | 221 | 7.8 | 12.2 | 0.00 | 0.00 | 0.00 | 62 | 1013.2 |
| 20260504021511 | 63 | 213 | 7.0 | 12.2 | 0.00 | 0.00 | 0.00 | 62 | 1013.1 |
| 20260504021011 | 63 | 229 | 7.0 | 12.2 | 0.00 | 0.00 | 0.00 | 61 | 1013.1 |
| 20260504020743 | 64 | 219 | 7.0 | 12.2 | 0.00 | 0.00 | 0.00 | 61 | 1013.0 |
| 20260504020008 | 64 | 227 | 7.8 | 13.9 | 0.00 | 0.00 | 0.00 | 61 | 1012.9 |
| 20260504015508 | 64 | 231 | 7.0 | 13.9 | 0.00 | 0.00 | 0.00 | 60 | 1013.0 |
| 20260504015007 | 64 | 219 | 7.0 | 13.0 | 0.00 | 0.00 | 0.00 | 59 | 1012.9 |
| 20260504014509 | 65 | 215 | 7.0 | 13.0 | 0.00 | 0.00 | 0.00 | 59 | 1012.7 |
| 20260504014001 | 65 | 221 | 7.0 | 13.9 | 0.00 | 0.00 | 0.00 | 58 | 1012.7 |
| 20260504013501 | 65 | 223 | 7.0 | 13.9 | 0.00 | 0.00 | 0.00 | 58 | 1012.8 |
| 20260504012959 | 66 | 211 | 7.0 | 13.0 | 0.00 | 0.00 | 0.00 | 57 | 1012.6 |
| 20260504012501 | 66 | 215 | 6.1 | 11.3 | 0.00 | 0.00 | 0.00 | 57 | 1012.6 |
| 20260504012001 | 66 | 219 | 6.1 | 11.3 | 0.00 | 0.00 | 0.00 | 57 | 1012.6 |
| 20260504011501 | 66 | 227 | 7.0 | 12.2 | 0.00 | 0.00 | 0.00 | 57 | 1012.5 |
| 20260504011000 | 66 | 227 | 7.0 | 12.2 | 0.00 | 0.00 | 0.00 | 57 | 1012.5 |
| 20260504010500 | 66 | 218 | 7.0 | 12.2 | 0.00 | 0.00 | 0.00 | 57 | 1012.5 |
| 20260504005957 | 67 | 217 | 6.1 | 12.2 | 0.00 | 0.00 | 0.00 | 56 | 1012.3 |
| 20260504005456 | 67 | 227 | 6.1 | 12.2 | 0.00 | 0.00 | 0.00 | 56 | 1012.5 |
| 20260504004957 | 67 | 219 | 7.0 | 10.4 | 0.00 | 0.00 | 0.00 | 55 | 1012.3 |
| 20260504004453 | 67 | 222 | 7.0 | 10.4 | 0.00 | 0.00 | 0.00 | 55 | 1012.3 |
| 20260504003953 | 68 | 232 | 6.1 | 10.4 | 0.00 | 0.00 | 0.00 | 54 | 1012.2 |
| 20260504003452 | 68 | 214 | 7.0 | 14.8 | 0.00 | 0.00 | 0.00 | 54 | 1012.3 |
| 20260504002952 | 68 | 222 | 7.8 | 14.8 | 0.00 | 0.00 | 0.00 | 54 | 1012.3 |
| 20260504002448 | 68 | 223 | 7.0 | 11.3 | 0.00 | 0.00 | 0.00 | 54 | 1012.1 |
| 20260504001948 | 68 | 223 | 6.1 | 10.4 | 0.00 | 0.00 | 0.00 | 54 | 1012.1 |
| 20260504001448 | 68 | 233 | 6.1 | 12.2 | 0.00 | 0.00 | 0.00 | 55 | 1012.1 |
| 20260504000946 | 68 | 221 | 6.1 | 12.2 | 0.00 | 0.00 | 0.00 | 54 | 1012.0 |
| 20260504000446 | 69 | 223 | 6.1 | 10.4 | 0.00 | 0.00 | 0.00 | 54 | 1012.0 |
| 20260503235946 | 69 | 223 | 6.1 | 9.6 | 0.00 | 0.00 | 0.00 | 55 | 1012.1 |
| 20260503235445 | 69 | 215 | 6.1 | 12.2 | 0.00 | 0.00 | 0.00 | 54 | 1012.0 |
| 20260503234946 | 69 | 232 | 7.0 | 12.2 | 0.00 | 0.00 | 0.00 | 53 | 1012.0 |
| 20260503234447 | 70 | 220 | 5.2 | 8.7 | 0.00 | 0.00 | 0.00 | 53 | 1012.1 |
| 20260503234218 | 70 | 248 | 5.2 | 10.4 | 0.00 | 0.00 | 0.00 | 54 | 1012.2 |
| 20260503233445 | 69 | 233 | 5.2 | 12.2 | 0.00 | 0.00 | 0.00 | 57 | 1012.2 |
| 20260503232945 | 69 | 223 | 6.1 | 12.2 | 0.00 | 0.00 | 0.00 | 55 | 1012.2 |
| 20260503232446 | 69 | 225 | 6.1 | 11.3 | 0.00 | 0.00 | 0.00 | 55 | 1012.2 |
| 20260503231946 | 70 | 223 | 7.0 | 11.3 | 0.00 | 0.00 | 0.00 | 55 | 1012.5 |
| 20260503231446 | 71 | 223 | 6.1 | 12.2 | 0.00 | 0.00 | 0.00 | 54 | 1012.3 |
| 20260503230946 | 72 | 230 | 6.1 | 12.2 | 0.00 | 0.00 | 0.00 | 53 | 1012.3 |
| 20260503230446 | 71 | 265 | 6.1 | 13.0 | 0.00 | 0.00 | 0.00 | 57 | 1012.3 |
| 20260503230217 | 69 | 231 | 7.0 | 13.0 | 0.00 | 0.00 | 0.00 | 58 | 1012.6 |
| 20260503225710 | 69 | 234 | 7.0 | 11.3 | 0.00 | 0.00 | 0.00 | 59 | 1012.6 |
| 20260503224939 | 69 | 221 | 6.1 | 11.3 | 0.00 | 0.00 | 0.00 | 59 | 1012.7 |
| 20260503224441 | 69 | 217 | 6.1 | 11.3 | 0.00 | 0.00 | 0.00 | 60 | 1012.7 |
| 20260503223939 | 69 | 223 | 6.1 | 13.0 | 0.00 | 0.00 | 0.00 | 59 | 1012.8 |
| 20260503223440 | 69 | 248 | 7.0 | 13.0 | 0.00 | 0.00 | 0.00 | 59 | 1012.8 |
| 20260503222940 | 70 | 226 | 6.1 | 10.4 | 0.00 | 0.00 | 0.00 | 59 | 1012.9 |
| 20260503222440 | 70 | 223 | 5.2 | 9.6 | 0.00 | 0.00 | 0.00 | 60 | 1012.9 |
| 20260503221939 | 69 | 221 | 6.1 | 12.2 | 0.00 | 0.00 | 0.00 | 61 | 1012.9 |
| 20260503221439 | 69 | 219 | 6.1 | 12.2 | 0.00 | 0.00 | 0.00 | 60 | 1013.0 |
| 20260503220940 | 69 | 229 | 5.2 | 10.4 | 0.00 | 0.00 | 0.00 | 60 | 1013.0 |
| 20260503220438 | 69 | 223 | 6.1 | 12.2 | 0.00 | 0.00 | 0.00 | 61 | 1013.0 |
| 20260503215937 | 69 | 196 | 5.2 | 12.2 | 0.00 | 0.00 | 0.00 | 61 | 1013.1 |
| 20260503215438 | 69 | 226 | 5.2 | 8.7 | 0.00 | 0.00 | 0.00 | 60 | 1013.2 |
| 20260503214937 | 69 | 225 | 4.3 | 8.7 | 0.00 | 0.00 | 0.00 | 61 | 1013.3 |
| 20260503214438 | 69 | 237 | 5.2 | 10.4 | 0.00 | 0.00 | 0.00 | 63 | 1013.2 |
| 20260503213938 | 69 | 249 | 5.2 | 10.4 | 0.00 | 0.00 | 0.00 | 61 | 1013.3 |
| 20260503213438 | 70 | 227 | 4.3 | 9.6 | 0.00 | 0.00 | 0.00 | 60 | 1013.3 |
| 20260503212939 | 70 | 229 | 4.3 | 9.6 | 0.00 | 0.00 | 0.00 | 61 | 1013.4 |
| 20260503212437 | 69 | 237 | 3.5 | 8.7 | 0.00 | 0.00 | 0.00 | 61 | 1013.4 |
| 20260503211936 | 69 | 249 | 4.3 | 7.0 | 0.00 | 0.00 | 0.00 | 60 | 1013.4 |
| 20260503211436 | 70 | 252 | 4.3 | 7.8 | 0.00 | 0.00 | 0.00 | 60 | 1013.4 |
| 20260503210935 | 70 | 225 | 4.3 | 9.6 | 0.00 | 0.00 | 0.00 | 60 | 1013.4 |
| 20260503210436 | 70 | 214 | 2.6 | 9.6 | 0.00 | 0.00 | 0.00 | 61 | 1013.4 |
| 20260503205935 | 70 | 230 | 1.7 | 6.1 | 0.00 | 0.00 | 0.00 | 64 | 1013.5 |
| 20260503204933 | 69 | 227 | 3.5 | 7.8 | 0.00 | 0.00 | 0.00 | 62 | 1013.6 |
| 20260503203934 | 69 | 240 | 2.6 | 7.0 | 0.00 | 0.00 | 0.00 | 65 | 1013.6 |
| 20260503203702 | 69 | 237 | 2.6 | 6.1 | 0.00 | 0.00 | 0.00 | 67 | 1013.7 |
| 20260503202929 | 68 | 238 | 2.6 | 6.1 | 0.00 | 0.00 | 0.00 | 67 | 1013.8 |
| 20260503202430 | 67 | 256 | 2.6 | 7.0 | 0.00 | 0.00 | 0.00 | 70 | 1013.8 |
| 20260503201928 | 66 | 257 | 3.5 | 7.0 | 0.00 | 0.00 | 0.00 | 71 | 1013.9 |
| 20260503201426 | 65 | 207 | 3.5 | 7.0 | 0.00 | 0.00 | 0.00 | 72 | 1014.0 |
| 20260503200926 | 65 | 228 | 4.3 | 7.8 | 0.00 | 0.00 | 0.00 | 74 | 1014.1 |
| 20260503200421 | 64 | 225 | 4.3 | 7.8 | 0.00 | 0.00 | 0.00 | 74 | 1014.1 |
| 20260503195917 | 64 | 232 | 4.3 | 7.8 | 0.00 | 0.00 | 0.00 | 75 | 1014.2 |
| 20260503195417 | 63 | 244 | 3.5 | 7.0 | 0.00 | 0.00 | 0.00 | 78 | 1014.3 |
| 20260503194912 | 62 | 234 | 4.3 | 7.8 | 0.00 | 0.00 | 0.00 | 78 | 1014.3 |
| 20260503194413 | 62 | 231 | 5.2 | 7.8 | 0.00 | 0.00 | 0.00 | 79 | 1014.4 |
| 20260503193911 | 61 | 223 | 4.3 | 7.8 | 0.00 | 0.00 | 0.00 | 79 | 1014.5 |
| 20260503193412 | 62 | 237 | 3.5 | 7.8 | 0.00 | 0.00 | 0.00 | 80 | 1014.6 |
| 20260503193142 | 61 | 257 | 5.2 | 8.7 | 0.00 | 0.00 | 0.00 | 80 | 1014.6 |
| 20260503192409 | 61 | 222 | 6.1 | 8.7 | 0.00 | 0.00 | 0.00 | 80 | 1014.6 |
| 20260503191907 | 62 | 225 | 5.2 | 9.6 | 0.00 | 0.00 | 0.00 | 79 | 1014.7 |
| 20260503191639 | 62 | 210 | 4.3 | 9.6 | 0.00 | 0.00 | 0.00 | 79 | 1014.7 |
| 20260503190908 | 62 | 193 | 4.3 | 8.7 | 0.00 | 0.00 | 0.00 | 79 | 1014.8 |
| 20260503190408 | 62 | 223 | 4.3 | 7.8 | 0.00 | 0.00 | 0.00 | 79 | 1014.8 |
| 20260503190138 | 62 | 234 | 5.2 | 7.8 | 0.00 | 0.00 | 0.00 | 80 | 1014.8 |
| 20260503185407 | 62 | 226 | 4.3 | 7.8 | 0.00 | 0.00 | 0.00 | 80 | 1014.8 |
| 20260503184909 | 62 | 230 | 4.3 | 7.8 | 0.00 | 0.00 | 0.00 | 81 | 1014.8 |
| 20260503184638 | 62 | 238 | 3.5 | 9.6 | 0.00 | 0.00 | 0.00 | 82 | 1014.8 |
| 20260503183909 | 62 | 221 | 4.3 | 9.6 | 0.00 | 0.00 | 0.00 | 82 | 1014.9 |
| 20260503183407 | 61 | 219 | 4.3 | 8.7 | 0.00 | 0.00 | 0.00 | 83 | 1014.8 |
| 20260503182908 | 61 | 221 | 4.3 | 8.7 | 0.00 | 0.00 | 0.00 | 84 | 1014.9 |
| 20260503182404 | 61 | 221 | 4.3 | 8.7 | 0.00 | 0.00 | 0.00 | 84 | 1014.9 |
| 20260503181903 | 61 | 223 | 3.5 | 7.8 | 0.00 | 0.00 | 0.00 | 85 | 1014.9 |
| 20260503180859 | 60 | 223 | 5.2 | 8.7 | 0.00 | 0.00 | 0.00 | 85 | 1014.9 |
| 20260503180359 | 60 | 224 | 5.2 | 8.7 | 0.00 | 0.00 | 0.00 | 85 | 1014.9 |
| 20260503175900 | 60 | 223 | 5.2 | 8.7 | 0.00 | 0.00 | 0.00 | 85 | 1014.9 |
| 20260503175355 | 60 | 224 | 5.2 | 8.7 | 0.00 | 0.00 | 0.00 | 85 | 1014.8 |
| 20260503174851 | 60 | 224 | 5.2 | 8.7 | 0.00 | 0.00 | 0.00 | 85 | 1014.8 |
| 20260503174352 | 60 | 225 | 5.2 | 8.7 | 0.00 | 0.00 | 0.00 | 84 | 1014.7 |
| 20260503173852 | 60 | 211 | 4.3 | 7.8 | 0.00 | 0.00 | 0.00 | 84 | 1014.7 |
| 20260503173351 | 60 | 213 | 4.3 | 7.8 | 0.00 | 0.00 | 0.00 | 84 | 1014.7 |
| 20260503172851 | 60 | 215 | 4.3 | 7.8 | 0.00 | 0.00 | 0.00 | 83 | 1014.7 |
| 20260503172351 | 60 | 226 | 3.5 | 6.1 | 0.00 | 0.00 | 0.00 | 82 | 1014.6 |
| 20260503171853 | 60 | 232 | 3.5 | 5.2 | 0.00 | 0.00 | 0.00 | 81 | 1014.6 |
| 20260503171624 | 60 | 233 | 3.5 | 5.2 | 0.00 | 0.00 | 0.00 | 81 | 1014.5 |
| 20260503170852 | 60 | 234 | 3.5 | 5.2 | 0.00 | 0.00 | 0.00 | 80 | 1014.5 |
| 20260503170349 | 60 | 234 | 3.5 | 6.1 | 0.00 | 0.00 | 0.00 | 80 | 1014.5 |
| 20260503170120 | 60 | 235 | 2.6 | 6.1 | 0.00 | 0.00 | 0.00 | 80 | 1014.5 |
| 20260503150839 | 58 | 257 | 1.7 | 3.5 | 0.00 | 0.00 | 0.00 | 81 | 1014.1 |
| 20260503150341 | 58 | 257 | 2.6 | 3.5 | 0.00 | 0.00 | 0.00 | 81 | 1014.1 |
| 20260503131319 | 58 | 257 | 1.7 | 3.5 | 0.00 | 0.00 | 0.00 | 86 | 1013.4 |
| 20260503130816 | 58 | 257 | 1.7 | 3.5 | 0.00 | 0.00 | 0.00 | 86 | 1013.4 |
| 20260503130316 | 58 | 257 | 1.7 | 3.5 | 0.00 | 0.00 | 0.00 | 86 | 1013.4 |
| 20260503110758 | 58 | 257 | 2.6 | 6.1 | 0.00 | 0.00 | 0.00 | 86 | 1012.8 |
| 20260503110257 | 58 | 257 | 2.6 | 6.1 | 0.00 | 0.00 | 0.00 | 86 | 1012.7 |
| 20260503100250 | 58 | 257 | 3.5 | 6.1 | 0.00 | 0.00 | 0.00 | 85 | 1013.1 |
| 20260503090238 | 58 | 238 | 1.7 | 6.1 | 0.00 | 0.00 | 0.00 | 85 | 1013.2 |
| 20260503081227 | 58 | 238 | 0.9 | 3.5 | 0.00 | 0.00 | 0.00 | 83 | 1013.4 |
| 20260503080727 | 59 | 238 | 1.7 | 3.5 | 0.00 | 0.00 | 0.00 | 83 | 1013.4 |
| 20260503080225 | 59 | 238 | 1.7 | 4.3 | 0.00 | 0.00 | 0.00 | 83 | 1013.4 |
| 20260503072723 | 59 | 238 | 1.7 | 3.5 | 0.00 | 0.00 | 0.00 | 82 | 1013.2 |
| 20260503072222 | 59 | 238 | 1.7 | 4.3 | 0.00 | 0.00 | 0.00 | 82 | 1013.2 |
| 20260503071719 | 59 | 238 | 1.7 | 4.3 | 0.00 | 0.00 | 0.00 | 81 | 1013.1 |
| 20260503071221 | 59 | 238 | 1.7 | 3.5 | 0.00 | 0.00 | 0.00 | 81 | 1013.0 |
| 20260503070715 | 59 | 238 | 2.6 | 4.3 | 0.00 | 0.00 | 0.00 | 81 | 1013.1 |
| 20260503070212 | 59 | 238 | 2.6 | 5.2 | 0.00 | 0.00 | 0.00 | 80 | 1013.0 |
| 20260503060158 | 61 | 239 | 1.7 | 4.3 | 0.00 | 0.00 | 0.00 | 77 | 1012.9 |
| 20260503054655 | 61 | 238 | 2.6 | 7.0 | 0.00 | 0.00 | 0.00 | 77 | 1013.0 |
| 20260503054422 | 61 | 239 | 3.5 | 7.0 | 0.00 | 0.00 | 0.00 | 77 | 1013.1 |
| 20260503053650 | 62 | 232 | 3.5 | 7.0 | 0.00 | 0.00 | 0.00 | 77 | 1013.1 |
| 20260503053151 | 62 | 227 | 4.3 | 7.0 | 0.00 | 0.00 | 0.00 | 77 | 1013.1 |
| 20260503052920 | 62 | 231 | 4.3 | 7.0 | 0.00 | 0.00 | 0.00 | 76 | 1013.1 |